Time,TemperatureF,DewpointF,PressureIn,WindDirection,WindDirectionDegrees,WindSpeedMPH,WindSpeedGustMPH,Humidity,HourlyPrecipIn,Conditions,Clouds,dailyrainin,SoftwareType,DateUTC
2013-01-17 00:22:00,42.0,34.0,-100.00,North,353,4.0,-999.0,71,0.00,,,-99.99,,2013-01-17 08:22:00,
2013-01-17 00:32:00,42.0,34.0,-100.00,North,353,4.0,-999.0,71,0.00,,,-99.99,,2013-01-17 08:32:00,
2013-01-17 01:00:00,42.0,35.0,-100.00,NNW,345,6.0,-999.0,75,0.00,,,-99.99,,2013-01-17 09:00:00,
2013-01-17 01:22:00,42.0,35.0,-100.00,NNW,345,6.0,-999.0,75,0.00,,,-99.99,,2013-01-17 09:22:00,
2013-01-17 01:33:00,42.0,35.0,-100.00,NNW,345,6.0,-999.0,75,0.00,,,-99.99,,2013-01-17 09:33:00,
2013-01-17 01:42:00,42.0,35.0,-100.00,NNW,345,6.0,-999.0,75,0.00,,,-99.99,,2013-01-17 09:42:00,
2013-01-17 01:52:00,42.0,35.0,-100.00,NNW,345,6.0,-999.0,75,0.00,,,-99.99,,2013-01-17 09:52:00,
2013-01-17 02:00:00,41.0,36.0,-100.00,North,355,11.0,-999.0,82,0.00,,,-99.99,,2013-01-17 10:00:00,
2013-01-17 02:22:00,41.0,36.0,-100.00,North,355,11.0,-999.0,82,0.00,,,-99.99,,2013-01-17 10:22:00,
2013-01-17 02:33:00,41.0,36.0,-100.00,North,355,11.0,-999.0,82,0.00,,,-99.99,,2013-01-17 10:33:00,
2013-01-17 03:00:00,41.0,36.0,-100.00,NNW,346,13.0,-999.0,83,0.00,,,-99.99,,2013-01-17 11:00:00,
2013-01-17 03:23:00,41.0,36.0,-100.00,NNW,346,13.0,-999.0,83,0.00,,,-99.99,,2013-01-17 11:23:00,
2013-01-17 03:33:00,41.0,36.0,-100.00,NNW,346,13.0,-999.0,83,0.00,,,-99.99,,2013-01-17 11:33:00,
2013-01-17 03:43:00,41.0,36.0,-100.00,NNW,346,13.0,-999.0,83,0.00,,,-99.99,,2013-01-17 11:43:00,
2013-01-17 03:53:00,41.0,36.0,-100.00,NNW,346,13.0,-999.0,83,0.00,,,-99.99,,2013-01-17 11:53:00,
2013-01-17 04:00:00,38.0,36.0,-100.00,NNW,342,12.0,-999.0,89,0.00,,,-99.99,,2013-01-17 12:00:00,
2013-01-17 04:23:00,38.0,36.0,-100.00,NNW,342,12.0,-999.0,89,0.00,,,-99.99,,2013-01-17 12:23:00,
2013-01-17 04:33:00,38.0,36.0,-100.00,NNW,342,12.0,-999.0,89,0.00,,,-99.99,,2013-01-17 12:33:00,
2013-01-17 04:43:00,38.0,36.0,-100.00,NNW,342,12.0,-999.0,89,0.00,,,-99.99,,2013-01-17 12:43:00,
2013-01-17 04:53:00,38.0,36.0,-100.00,NNW,342,12.0,-999.0,89,0.00,,,-99.99,,2013-01-17 12:53:00,
2013-01-17 05:00:00,39.0,36.0,-100.00,North,355,12.0,-999.0,88,0.00,,,-99.99,,2013-01-17 13:00:00,
2013-01-17 05:23:00,39.0,36.0,-100.00,North,355,12.0,-999.0,88,0.00,,,-99.99,,2013-01-17 13:23:00,
2013-01-17 05:33:00,39.0,36.0,-100.00,North,355,12.0,-999.0,88,0.00,,,-99.99,,2013-01-17 13:33:00,
2013-01-17 05:43:00,39.0,36.0,-100.00,North,355,12.0,-999.0,88,0.00,,,-99.99,,2013-01-17 13:43:00,
2013-01-17 05:53:00,39.0,36.0,-100.00,North,355,12.0,-999.0,88,0.00,,,-99.99,,2013-01-17 13:53:00,
2013-01-17 06:00:00,37.0,36.0,-100.00,NNW,344,10.0,-999.0,93,0.00,,,-99.99,,2013-01-17 14:00:00,
2013-01-17 06:23:00,37.0,36.0,-100.00,NNW,344,10.0,-999.0,93,0.00,,,-99.99,,2013-01-17 14:23:00,
2013-01-17 06:33:00,37.0,36.0,-100.00,NNW,344,10.0,-999.0,93,0.00,,,-99.99,,2013-01-17 14:33:00,
2013-01-17 06:43:00,37.0,36.0,-100.00,NNW,344,10.0,-999.0,93,0.00,,,-99.99,,2013-01-17 14:43:00,
2013-01-17 06:53:00,37.0,36.0,-100.00,NNW,344,10.0,-999.0,93,0.00,,,-99.99,,2013-01-17 14:53:00,
2013-01-17 07:43:00,40.0,34.0,-100.00,NNE,23,4.0,-999.0,78,0.00,,,-99.99,,2013-01-17 15:43:00,
2013-01-17 07:53:00,40.0,34.0,-100.00,NNE,23,4.0,-999.0,78,0.00,,,-99.99,,2013-01-17 15:53:00,
2013-01-17 08:23:00,38.0,33.0,-100.00,NNE,23,5.0,-999.0,80,0.00,,,-99.99,,2013-01-17 16:23:00,
2013-01-17 08:33:00,38.0,33.0,-100.00,NNE,23,5.0,-999.0,80,0.00,,,-99.99,,2013-01-17 16:33:00,
2013-01-17 09:00:00,39.0,33.0,-100.00,NE,50,4.0,-999.0,80,0.00,,,-99.99,,2013-01-17 17:00:00,
2013-01-17 09:23:00,39.0,33.0,-100.00,NE,50,4.0,-999.0,80,0.00,,,-99.99,,2013-01-17 17:23:00,
2013-01-17 09:33:00,39.0,33.0,-100.00,NE,50,4.0,-999.0,80,0.00,,,-99.99,,2013-01-17 17:33:00,
2013-01-17 10:00:00,39.0,34.0,-100.00,North,5,7.0,-999.0,82,0.00,,,-99.99,,2013-01-17 18:00:00,
2013-01-17 10:23:00,39.0,34.0,-100.00,North,5,7.0,-999.0,82,0.00,,,-99.99,,2013-01-17 18:23:00,
2013-01-17 10:34:00,39.0,34.0,-100.00,North,5,7.0,-999.0,82,0.00,,,-99.99,,2013-01-17 18:34:00,
2013-01-17 10:44:00,39.0,34.0,-100.00,North,5,7.0,-999.0,82,0.00,,,-99.99,,2013-01-17 18:44:00,
2013-01-17 10:53:00,39.0,34.0,-100.00,North,5,7.0,-999.0,82,0.00,,,-99.99,,2013-01-17 18:53:00,
2013-01-17 11:00:00,42.0,36.0,-100.00,NNE,22,8.0,-999.0,80,0.00,,,-99.99,,2013-01-17 19:00:00,
2013-01-17 11:23:00,42.0,36.0,-100.00,NNE,22,8.0,-999.0,80,0.00,,,-99.99,,2013-01-17 19:23:00,
2013-01-17 11:33:00,42.0,36.0,-100.00,NNE,22,8.0,-999.0,80,0.00,,,-99.99,,2013-01-17 19:33:00,
2013-01-17 11:43:00,42.0,36.0,-100.00,NNE,22,8.0,-999.0,80,0.00,,,-99.99,,2013-01-17 19:43:00,
2013-01-17 11:53:00,42.0,36.0,-100.00,NNE,22,8.0,-999.0,80,0.00,,,-99.99,,2013-01-17 19:53:00,
2013-01-17 12:00:00,45.0,38.0,-100.00,NNE,24,6.0,-999.0,75,0.00,,,-99.99,,2013-01-17 20:00:00,
2013-01-17 12:23:00,45.0,38.0,-100.00,NNE,24,6.0,-999.0,75,0.00,,,-99.99,,2013-01-17 20:23:00,
2013-01-17 12:33:00,45.0,38.0,-100.00,NNE,24,6.0,-999.0,75,0.00,,,-99.99,,2013-01-17 20:33:00,
2013-01-17 12:43:00,45.0,38.0,-100.00,NNE,24,6.0,-999.0,75,0.00,,,-99.99,,2013-01-17 20:43:00,
2013-01-17 12:53:00,45.0,38.0,-100.00,NNE,24,6.0,-999.0,75,0.00,,,-99.99,,2013-01-17 20:53:00,
2013-01-17 13:00:00,52.0,37.0,-100.00,ENE,78,4.0,-999.0,57,0.00,,,-99.99,,2013-01-17 21:00:00,
2013-01-17 13:23:00,52.0,37.0,-100.00,ENE,78,4.0,-999.0,57,0.00,,,-99.99,,2013-01-17 21:23:00,
2013-01-17 13:34:00,52.0,37.0,-100.00,ENE,78,4.0,-999.0,57,0.00,,,-99.99,,2013-01-17 21:34:00,
2013-01-17 13:43:00,52.0,37.0,-100.00,ENE,78,4.0,-999.0,57,0.00,,,-99.99,,2013-01-17 21:43:00,
2013-01-17 13:53:00,52.0,37.0,-100.00,ENE,78,4.0,-999.0,57,0.00,,,-99.99,,2013-01-17 21:53:00,
2013-01-17 14:00:00,55.0,37.0,-100.00,East,93,4.0,-999.0,50,0.00,,,-99.99,,2013-01-17 22:00:00,
2013-01-17 14:23:00,55.0,37.0,-100.00,East,93,4.0,-999.0,50,0.00,,,-99.99,,2013-01-17 22:23:00,
2013-01-17 14:33:00,55.0,37.0,-100.00,East,93,4.0,-999.0,50,0.00,,,-99.99,,2013-01-17 22:33:00,
2013-01-17 14:43:00,55.0,37.0,-100.00,East,93,4.0,-999.0,50,0.00,,,-99.99,,2013-01-17 22:43:00,
2013-01-17 14:52:00,55.0,37.0,-100.00,East,93,4.0,-999.0,50,0.00,,,-99.99,,2013-01-17 22:52:00,
2013-01-17 15:00:00,58.0,38.0,-100.00,SE,127,8.0,-999.0,46,0.00,,,-99.99,,2013-01-17 23:00:00,
2013-01-17 15:23:00,58.0,38.0,-100.00,SE,127,8.0,-999.0,46,0.00,,,-99.99,,2013-01-17 23:23:00,
2013-01-17 15:33:00,58.0,38.0,-100.00,SE,127,8.0,-999.0,46,0.00,,,-99.99,,2013-01-17 23:33:00,
2013-01-17 15:43:00,58.0,38.0,-100.00,SE,127,8.0,-999.0,46,0.00,,,-99.99,,2013-01-17 23:43:00,
2013-01-17 15:53:00,58.0,38.0,-100.00,SE,127,8.0,-999.0,46,0.00,,,-99.99,,2013-01-17 23:53:00,
2013-01-17 16:00:00,58.0,39.0,-100.00,SE,139,6.0,-999.0,50,0.00,,,-99.99,,2013-01-18 00:00:00,
2013-01-17 16:23:00,58.0,39.0,-100.00,SE,139,6.0,-999.0,50,0.00,,,-99.99,,2013-01-18 00:23:00,
2013-01-17 16:33:00,58.0,39.0,-100.00,SE,139,6.0,-999.0,50,0.00,,,-99.99,,2013-01-18 00:33:00,
2013-01-17 16:43:00,58.0,39.0,-100.00,SE,139,6.0,-999.0,50,0.00,,,-99.99,,2013-01-18 00:43:00,
2013-01-17 16:52:00,58.0,39.0,-100.00,SE,139,6.0,-999.0,50,0.00,,,-99.99,,2013-01-18 00:52:00,
2013-01-17 17:00:00,56.0,38.0,-100.00,SE,130,7.0,-999.0,50,0.00,,,-99.99,,2013-01-18 01:00:00,
2013-01-17 17:23:00,56.0,38.0,-100.00,SE,130,7.0,-999.0,50,0.00,,,-99.99,,2013-01-18 01:23:00,
2013-01-17 17:33:00,56.0,38.0,-100.00,SE,130,7.0,-999.0,50,0.00,,,-99.99,,2013-01-18 01:33:00,
2013-01-17 17:43:00,56.0,38.0,-100.00,SE,130,7.0,-999.0,50,0.00,,,-99.99,,2013-01-18 01:43:00,
2013-01-17 17:52:00,56.0,38.0,-100.00,SE,130,7.0,-999.0,50,0.00,,,-99.99,,2013-01-18 01:52:00,
2013-01-17 18:00:00,54.0,37.0,-100.00,SE,128,6.0,-999.0,51,0.00,,,-99.99,,2013-01-18 02:00:00,
2013-01-17 18:23:00,54.0,37.0,-100.00,SE,128,6.0,-999.0,51,0.00,,,-99.99,,2013-01-18 02:23:00,
2013-01-17 18:33:00,54.0,37.0,-100.00,SE,128,6.0,-999.0,51,0.00,,,-99.99,,2013-01-18 02:33:00,
2013-01-17 18:43:00,54.0,37.0,-100.00,SE,128,6.0,-999.0,51,0.00,,,-99.99,,2013-01-18 02:43:00,
2013-01-17 18:53:00,54.0,37.0,-100.00,SE,128,6.0,-999.0,51,0.00,,,-99.99,,2013-01-18 02:53:00,
2013-01-17 19:00:00,54.0,36.0,-100.00,SE,125,6.0,-999.0,51,0.00,,,-99.99,,2013-01-18 03:00:00,
2013-01-17 19:23:00,54.0,36.0,-100.00,SE,125,6.0,-999.0,51,0.00,,,-99.99,,2013-01-18 03:23:00,
2013-01-17 19:33:00,54.0,36.0,-100.00,SE,125,6.0,-999.0,51,0.00,,,-99.99,,2013-01-18 03:33:00,
2013-01-17 20:22:00,52.0,36.0,-100.00,SE,128,6.0,-999.0,53,0.00,,,-99.99,,2013-01-18 04:22:00,
2013-01-17 20:33:00,52.0,36.0,-100.00,SE,128,6.0,-999.0,53,0.00,,,-99.99,,2013-01-18 04:33:00,
2013-01-17 21:22:00,51.0,35.0,-100.00,NE,41,2.0,-999.0,55,0.00,,,-99.99,,2013-01-18 05:22:00,
2013-01-17 21:33:00,51.0,35.0,-100.00,NE,41,2.0,-999.0,55,0.00,,,-99.99,,2013-01-18 05:33:00,
2013-01-17 22:22:00,49.0,35.0,-100.00,NE,50,4.0,-999.0,59,0.00,,,-99.99,,2013-01-18 06:22:00,
2013-01-17 22:33:00,49.0,35.0,-100.00,NE,50,4.0,-999.0,59,0.00,,,-99.99,,2013-01-18 06:33:00,
2013-01-17 23:22:00,47.0,35.0,-100.00,NNE,20,5.0,-999.0,63,0.00,,,-99.99,,2013-01-18 07:22:00,
2013-01-17 23:33:00,47.0,35.0,-100.00,NNE,20,5.0,-999.0,63,0.00,,,-99.99,,2013-01-18 07:33:00,